Regional Weather Roundup
Issued by NWS

Home | Current Version | Previous Version | Graphics & Text | Print | Product List | Glossary On
Versions: 1 2 3 4 5 6 7 8 9 10 11 12 13 14 15 16 17 18 19 20 21 22 23 24 25 26 27 28 29 30 31 32 33 34 35 36 37 38 39 40 41 42 43 44 45 46 47 48 49 50
000
ASUS43 KFSD 010902
RWRSD

WEATHER ROUNDUP FOR SOUTH DAKOTA
NATIONAL WEATHER SERVICE SIOUX FALLS SD
400 AM CDT SAT AUG 01 2015

NOTE: "FAIR" INDICATES FEW OR NO CLOUDS BELOW 12,000 FEET WITH NO
SIGNIFICANT WEATHER AND/OR OBSTRUCTIONS TO VISIBILITY.


SDZ001>005-009-010-012>017-011000-
NORTHWEST AND NORTH CENTRAL SOUTH DAKOTA

CITY           SKY/WX    TMP DP  RH WIND       PRES   REMARKS
BUFFALO          N/A     65  50  58 S8        29.95F
FAITH            N/A     70  52  52 S18       30.00F
MOBRIDGE       PTCLDY    67  59  75 NE5       29.99F
$$

SDZ012>016-024>037-041>051-057-063-072>074-011000-
SOUTHWEST AND SOUTH CENTRAL SOUTH DAKOTA

CITY           SKY/WX    TMP DP  RH WIND       PRES   REMARKS
RAPID CTY ARPT PTCLDY    67  53  61 SW6       30.06F
PIERRE         CLEAR     69  61  75 S10       29.98F
CUSTER         PTCLDY    58  48  69 W3        30.22F
PHILIP         RAIN      70  64  81 S14G20    30.00F
PINE RIDGE     CLEAR     63  53  70 CALM      30.07F
WINNER         FAIR      75  61  61 S12       30.03F
$$

SDZ004>011-016>023-039-040-011000-
NORTHEAST SOUTH DAKOTA

CITY           SKY/WX    TMP DP  RH WIND       PRES   REMARKS
ABERDEEN       CLEAR     61  55  81 N6        30.01F
WATERTOWN      CLEAR     64  57  78 CALM      30.03R
BROOKINGS      CLEAR     64  59  82 SW3       30.03F
SISSETON         N/A     60  57  89 W6        30.00S
$$

SDZ017-020-022-023-036>040-048>070-011000-
SOUTHEAST SOUTH DAKOTA

CITY           SKY/WX    TMP DP  RH WIND       PRES   REMARKS
SIOUX FALLS    CLEAR     70  64  81 SW7       30.03F
HURON          CLEAR     65  62  90 CALM      29.99S
CHAMBERLAIN    PTCLDY    68  65  92 SW7       30.02F
MITCHELL       CLEAR     69  66  90 SW8       30.00F
YANKTON        CLEAR     66  66 100 S5        30.02F
$$

ABBREVIATIONS USED IN REMARKS
   TC - TEMPERATURE IN CELSIUS
  WCI - WIND CHILL INDEX
   HX - HEAT INDEX
  VSB - VISIBILITY



USA.gov is the U.S. government's official web portal to all federal, state and local government web resources and services.